Notices

What's New in latest Release from April 7th, 2021:

- Updated Glossary, including Speed of Maximum Gust, and Total Hourly Precipitation

- Updated national and regional climate services offices contacts and prices information

- Addition of station inventory lists for 1981-2010, 1971-2000, and 1961-1990 Normals.

If you haven't already, please take our survey and provide feedback about our website: https://eccc.sondage-survey.ca/f/LanguageSelection.aspx?s=442ca660-fcf1-47c0-95a9-59707d6fd709

Hourly Data Report for March 30, 2017

MIRAMICHI RCS
NEW BRUNSWICK

47°00'34.000" N
65°27'54.000" W
33.00 m
8100989
71744
ACQ

Download Data

Hourly Data (March 2017)
Hourly Data Report for March 30, 2017
TIME
LST
Temp Definition
°C
Dew Point Definition
°C
Rel Hum Definition
%
Precip. Amount Definition
mm

Wind Dir Definition
10's deg

Wind Spd Definition
km/h
Visibility Definition
km
Stn Press Definition
kPa
Hmdx Definition


Wind Chill Definition


Weather Definition


00:00 -1.9 -3.5 89 0.0 34 7   101.15   -5 LegendNANA
01:00 -1.7 -3.4 89 0.0 34 8   101.15   -5 LegendNANA
02:00 -1.6 -3.9 85 0.0 34 8   101.15   -5 LegendNANA
03:00 -1.7 -4.3 83 0.0 33 11   101.12   -6 LegendNANA
04:00 -2.0 -5.0 80 0.0 34 12   101.11   -6 LegendNANA
05:00 -2.4 -5.3 80 0.0 34 13   101.11   -7 LegendNANA
06:00 -2.9 -5.5 82 0.0 34 8   101.20   -6 LegendNANA
07:00 -2.8 -5.5 82 0.0 33 7   101.22   -6 LegendNANA
08:00 -1.0 -5.0 75 0.0 35 11   101.21   -5 LegendNANA
09:00 0.1 -5.0 69 0.0 34 14   101.22     LegendNANA
10:00 0.2 -7.1 58 0.0 36 22   101.28     LegendNANA
11:00 0.7 -6.9 57 0.0 35 18   101.30     LegendNANA
12:00 1.1 -6.9 55 0.0 35 17   101.30     LegendNANA
13:00 1.6 -6.9 53 0.0 36 19   101.29     LegendNANA
14:00 1.8 -6.5 54 0.0 36 18   101.27     LegendNANA
15:00 1.6 -7.0 53 0.0 36 17   101.31     LegendNANA
16:00 1.7 -6.7 54 0.0 36 14   101.37     LegendNANA
17:00 1.7 -6.4 55 0.0 36 11   101.40     LegendNANA
18:00 1.5 -6.2 56 0.0 35 13   101.42     LegendNANA
19:00 1.1 -6.3 58 0.0 35 11   101.51     LegendNANA
20:00 0.8 -6.2 59 0.0 34 13   101.52     LegendNANA
21:00 0.6 -6.6 59 0.0 35 10   101.57     LegendNANA
22:00 -0.1 -7.0 59 0.0 34 10   101.56   -3 LegendNANA
23:00 -1.1 -7.1 64 0.0 33 10   101.56   -5 LegendNANA

Notes on Data Quality.

Legend

  • E = Estimated
  • M = Missing
  • NA = Not Available*
  • [empty] = Indicates an unobserved value
Date modified: